Vertical_Velocity
3 0 1 3 4 -8 12 2 5 -7 5 7 3 -2 -2 -1 1 1 -0 4 1 2 -0 2 3 3 4 4 1 2 1 -1 -1 1 -1 2 -1 -2 -0 -3 -2 -3 1 -1
1 -2 1 2 -2 -0 2 5 6 -2 -5 1 5 8 -3 1 3 2 3 6 5 5 3 2 5 4 5 4 2 2 1 -0 -2 -2 0 2 -2 -1 2 -3 -3 -5 2 -2
-3 1 -1 -1 4 6 8 5 7 11 -2 6 -5 -4 6 -4 1 2 3 4 6 4 3 3 1 3 3 3 2 1 0 1 0 0 -1 -1 0 -2 1 1 -2 -1 1 -4
-0 -9 3 4 2 4 2 0 4 3 -4 3 5 2 7 -4 2 -1 -3 4 3 4 2 0 -1 1 1 2 2 2 -1 3 0 -1 -1 -4 -1 1 0 -2 1 1 4 2
2 0 -3 1 -0 3 0 -0 -2 -1 -3 0 3 -2 -3 7 11 8 2 2 4 2 1 0 -1 3 1 2 2 1 1 1 2 2 -2 -2 -4 -1 0 1 -2 -3 -4 -1
-1 -1 -1 1 -3 -3 -16 -0 -1 4 4 -2 2 5 -10 2 2 9 12 10 10 7 2 -0 -1 1 0 2 2 0 0 0 4 2 -1 -2 -4 0 -2 -2 -1 -2 -4 -3
0 0 -0 -3 -4 -3 -3 -11 -4 -7 -8 -4 -2 3 -1 -2 -3 -5 3 -6 10 7 3 3 -6 1 2 2 -0 -2 1 2 4 3 2 -1 -1 -3 -0 0 -2 -2 -3 -1
1 1 -1 1 0 -2 -1 -1 -3 -7 -8 -7 -3 -0 2 -2 3 2 -3 -4 -9 1 2 4 -5 -3 4 6 -6 1 2 1 5 3 1 -1 -1 -0 -0 1 0 2 4 3
-0 -0 0 1 1 1 -1 -2 -1 1 3 -4 -13 -10 -3 -2 -8 -0 1 -5 0 -2 -4 -2 -3 -0 -2 0 -5 -1 2 2 1 1 0 -3 1 0 1 0 -0 3 4 13
2 -0 -0 0 0 1 1 0 0 1 3 -1 0 8 1 -8 -13 -12 -7 -5 -8 2 -2 -10 -0 -5 2 -1 -1 7 -1 0 5 2 2 -0 -3 1 4 2 -1 2 2 2
1 1 -1 0 0 -0 -0 -1 -1 -1 -1 -2 -5 -5 -4 1 2 -1 -6 -12 -8 -5 1 6 -1 2 2 -2 1 4 13 -0 8 -1 1 2 -2 -0 6 3 1 1 -1 -1
0 2 2 2 1 2 1 -1 -1 -0 -0 -1 -1 -3 -5 -5 -2 -2 -5 -5 -5 -9 -9 -1 -3 -0 -1 0 -1 12 0 3 2 1 4 5 -0 9 7 2 0 2 -0 -0
-1 -2 -0 0 1 1 3 3 2 -0 -1 -0 -3 -1 2 -1 1 -5 -6 -0 -1 1 -2 -8 -10 1 -6 -4 4 12 6 -0 3 -1 5 5 2 2 1 7 3 2 2 1
-1 -3 -2 -1 -2 -2 -0 0 -1 -0 0 1 -2 -4 -5 -3 -1 -0 -1 -1 -0 -3 0 7 -12 -1 -4 -1 0 3 7 5 1 1 -1 4 3 2 -2 -2 -1 -1 2 3
4 4 3 -0 -1 -3 -2 -1 1 1 -1 -2 2 2 -1 -2 -3 -4 -4 -3 1 2 1 2 3 -1 0 -1 4 1 -5 4 2 4 -2 1 5 4 -1 -1 1 0 -1 2
-1 -1 -2 -0 -0 2 0 -2 -1 2 1 0 -1 -2 0 2 1 1 -3 -2 0 -1 1 1 -2 -4 1 -0 8 5 3 3 5 -0 1 -0 1 4 -2 2 1 1 1 2
-1 -3 -4 -3 -2 -3 -2 -1 -1 -1 1 0 -4 -0 -0 -1 1 1 3 0 -2 -2 -3 3 4 3 -1 4 0 6 6 3 6 -1 4 2 1 1 -2 0 1 3 8 3
-0 1 2 2 1 0 -1 -1 0 -2 -3 1 1 -1 -1 -1 -2 -0 2 4 3 5 1 -1 1 1 5 6 2 7 12 -3 5 -1 0 -3 0 -2 -5 -0 4 7 4 2
2 0 1 2 1 -1 -1 1 1 0 -1 -3 -1 0 -1 -1 -0 -1 -2 1 3 3 3 2 3 3 -2 3 14 8 9 -5 2 5 -1 1 9 -1 -3 -1 8 5 2 3
-1 -0 0 -1 2 3 -1 -2 -0 2 2 -0 -1 -1 1 -0 -2 -2 0 -1 2 2 3 7 0 6 -1 2 0 10 -1 20 8 -1 22 18 13 -4 -2 0 4 11 2 4
1 -0 -1 -1 -3 -1 2 1 -2 -1 -0 1 1 -1 -2 1 1 -1 -2 -1 2 -1 3 2 4 5 -1 -4 5 9 1 14 7 8 -0 8 7 -2 1 4 6 6 12 8
-1 -0 -1 -1 -2 -4 -3 -1 -1 -1 -1 -0 0 0 1 -0 -0 1 0 0 -1 0 -1 -0 3 5 -3 -6 -1 -4 0 1 8 19 11 10 3 4 5 7 -2 4 2 -3
-1 -1 -0 -1 0 -0 -3 -2 -3 -0 -1 -1 -1 1 -1 1 2 -2 2 -1 2 -0 0 1 -1 -1 4 -1 1 1 -3 -0 4 8 17 15 7 10 4 1 -2 1 5 4
1 -0 -1 -1 -0 1 1 -2 -2 -2 -1 -2 -1 0 1 -1 -3 6 -2 -0 0 -3 2 2 2 -1 7 6 2 -5 -1 1 2 -0 3 13 14 14 6 5 8 10 8 2
-0 -0 0 0 -0 1 1 1 0 -0 -1 -2 -3 -1 0 2 -0 -4 1 4 0 -2 -2 -2 1 -1 1 -1 2 6 4 2 0 -0 -1 1 5 3 11 11 5 7 3 1
-0 -0 -1 -1 0 1 1 -0 2 -1 1 -0 -4 -1 -3 -2 -0 2 -1 -4 -1 6 -0 -3 -1 -1 -2 1 2 1 1 3 3 1 -1 -1 -0 1 4 9 3 2 2 2
-2 -2 -0 -0 -2 -1 -1 -0 1 0 -0 1 0 -2 -2 -2 -3 -2 -0 1 1 -2 0 3 3 -1 -3 -2 -2 -2 1 2 3 5 4 1 -0 -1 -1 1 2 1 3 1
Height
5429 5435 5442 5449 5455 5463 5469 5474 5480 5486 5491 5497 5503 5510 5517 5525 5533 5538 5544 5551 5558 5565 5572 5579 5585 5592 5598 5604 5609 5615 5620 5623 5628 5632 5636 5639 5641 5644 5646 5647 5647 5646 5644 5644
5423 5429 5435 5441 5447 5453 5458 5463 5469 5475 5484 5489 5494 5500 5507 5514 5521 5528 5534 5541 5548 5555 5562 5568 5574 5581 5587 5593 5599 5604 5609 5614 5618 5623 5626 5629 5631 5635 5638 5639 5640 5640 5637 5639
5418 5423 5429 5438 5441 5445 5449 5452 5457 5463 5472 5481 5487 5493 5498 5504 5512 5519 5525 5531 5538 5544 5550 5557 5563 5570 5577 5582 5588 5593 5599 5604 5608 5613 5616 5619 5622 5625 5629 5632 5634 5633 5633 5634
5414 5418 5425 5428 5432 5436 5440 5445 5447 5454 5463 5472 5477 5481 5487 5494 5501 5508 5515 5521 5527 5533 5539 5545 5552 5559 5565 5571 5577 5582 5587 5593 5598 5602 5606 5609 5612 5615 5619 5622 5625 5627 5630 5630
5414 5414 5417 5422 5425 5428 5431 5437 5442 5446 5452 5461 5466 5469 5476 5483 5490 5496 5503 5509 5516 5522 5528 5534 5541 5547 5554 5561 5566 5572 5577 5582 5587 5592 5596 5600 5604 5607 5610 5613 5615 5617 5620 5623
5415 5415 5416 5418 5419 5421 5423 5431 5435 5440 5444 5450 5456 5462 5464 5471 5479 5484 5489 5497 5505 5511 5516 5522 5530 5538 5543 5550 5555 5561 5566 5572 5576 5581 5586 5590 5595 5599 5602 5605 5609 5611 5613 5615
5415 5416 5416 5416 5416 5416 5424 5427 5428 5433 5438 5441 5446 5453 5456 5459 5466 5473 5477 5483 5489 5496 5503 5510 5517 5526 5533 5539 5543 5549 5555 5561 5566 5570 5576 5581 5586 5591 5596 5599 5603 5605 5608 5611
5415 5415 5416 5414 5415 5416 5417 5416 5418 5422 5427 5433 5437 5442 5446 5451 5453 5460 5467 5473 5479 5486 5493 5499 5506 5515 5521 5527 5531 5538 5544 5551 5556 5560 5565 5571 5576 5581 5587 5592 5595 5599 5603 5606
5418 5417 5415 5414 5414 5414 5414 5414 5414 5416 5417 5418 5424 5431 5435 5437 5441 5445 5451 5458 5464 5472 5479 5486 5494 5502 5509 5513 5521 5528 5535 5540 5545 5550 5555 5560 5567 5572 5578 5583 5588 5592 5596 5599
5422 5420 5419 5418 5416 5415 5414 5414 5414 5413 5413 5415 5416 5417 5420 5423 5426 5429 5434 5438 5446 5456 5464 5471 5479 5488 5495 5500 5510 5518 5525 5530 5536 5540 5546 5550 5556 5564 5569 5574 5579 5583 5587 5591
5425 5424 5422 5420 5418 5417 5416 5415 5414 5415 5415 5415 5415 5415 5415 5414 5415 5415 5417 5421 5428 5435 5445 5454 5465 5473 5480 5487 5496 5505 5512 5519 5525 5530 5536 5542 5546 5553 5560 5565 5570 5574 5578 5582
5428 5426 5424 5422 5421 5419 5417 5415 5414 5412 5412 5412 5410 5410 5409 5408 5407 5407 5407 5407 5408 5414 5425 5437 5448 5457 5464 5473 5480 5491 5498 5505 5513 5520 5525 5532 5538 5544 5549 5554 5560 5565 5569 5573
5428 5426 5424 5422 5420 5419 5417 5416 5414 5412 5410 5408 5407 5405 5402 5401 5401 5400 5398 5395 5393 5398 5402 5413 5428 5440 5448 5456 5464 5474 5484 5491 5500 5506 5513 5520 5526 5532 5538 5544 5549 5554 5559 5563
5426 5424 5422 5420 5418 5416 5414 5413 5412 5410 5407 5405 5403 5399 5396 5393 5392 5391 5389 5385 5383 5383 5387 5393 5404 5418 5430 5438 5448 5458 5468 5475 5485 5492 5499 5507 5514 5521 5526 5533 5540 5544 5549 5554
5423 5420 5418 5415 5414 5412 5410 5408 5406 5404 5402 5400 5397 5395 5392 5388 5384 5382 5380 5378 5377 5376 5378 5381 5388 5396 5407 5421 5432 5441 5453 5461 5469 5477 5485 5492 5501 5507 5513 5519 5524 5532 5538 5542
5416 5414 5411 5409 5406 5405 5403 5401 5398 5397 5396 5394 5392 5390 5388 5384 5381 5377 5374 5372 5371 5372 5373 5375 5378 5384 5391 5402 5413 5422 5434 5448 5455 5463 5471 5480 5488 5496 5501 5506 5512 5519 5525 5530
5410 5406 5403 5401 5399 5397 5395 5393 5391 5389 5387 5386 5386 5384 5382 5380 5377 5374 5371 5368 5367 5367 5369 5370 5372 5375 5380 5386 5396 5406 5417 5427 5439 5449 5457 5467 5475 5483 5490 5495 5501 5507 5513 5517
5405 5402 5399 5396 5392 5389 5387 5385 5384 5382 5379 5378 5377 5376 5376 5375 5373 5371 5368 5366 5364 5362 5362 5362 5362 5365 5371 5376 5382 5393 5403 5411 5423 5433 5443 5452 5461 5470 5479 5483 5488 5493 5499 5503
5398 5394 5391 5388 5386 5383 5380 5377 5376 5374 5371 5369 5368 5367 5367 5367 5367 5367 5365 5363 5361 5360 5359 5359 5360 5361 5363 5369 5377 5384 5393 5401 5412 5422 5430 5439 5447 5457 5465 5470 5474 5479 5486 5491
5389 5386 5384 5380 5378 5375 5372 5369 5367 5366 5364 5362 5359 5358 5357 5358 5359 5359 5359 5359 5357 5356 5355 5355 5358 5359 5362 5365 5371 5377 5385 5393 5400 5409 5420 5426 5434 5445 5451 5457 5462 5466 5472 5478
5379 5376 5374 5372 5369 5366 5364 5361 5359 5357 5355 5353 5352 5350 5348 5347 5348 5350 5351 5351 5352 5352 5351 5351 5352 5354 5359 5363 5365 5371 5377 5385 5394 5400 5408 5417 5423 5431 5438 5444 5448 5453 5459 5464
5369 5366 5364 5361 5359 5356 5354 5352 5350 5348 5346 5344 5343 5342 5340 5339 5338 5339 5341 5344 5344 5345 5347 5348 5348 5349 5354 5359 5363 5368 5370 5376 5382 5390 5399 5407 5413 5419 5425 5430 5436 5442 5447 5453
5360 5357 5354 5351 5349 5346 5344 5341 5339 5339 5337 5335 5334 5333 5331 5330 5330 5329 5330 5332 5335 5337 5339 5341 5343 5344 5347 5351 5354 5358 5363 5368 5373 5379 5388 5395 5403 5408 5414 5418 5424 5430 5435 5440
5351 5348 5344 5341 5339 5336 5334 5330 5328 5326 5325 5324 5322 5322 5321 5320 5319 5320 5319 5320 5322 5324 5328 5332 5335 5336 5340 5343 5347 5353 5357 5361 5365 5371 5377 5383 5391 5396 5401 5406 5410 5416 5421 5426
5343 5340 5337 5334 5331 5328 5325 5321 5318 5315 5312 5310 5309 5309 5308 5308 5307 5307 5308 5309 5309 5310 5313 5317 5322 5325 5328 5333 5336 5340 5345 5350 5356 5361 5367 5372 5377 5383 5388 5393 5398 5404 5409 5414
5336 5333 5330 5326 5323 5320 5317 5313 5310 5305 5302 5299 5295 5295 5295 5294 5293 5293 5294 5295 5295 5298 5300 5301 5305 5310 5315 5319 5324 5328 5332 5337 5342 5348 5353 5359 5364 5370 5375 5380 5385 5391 5395 5400
5331 5327 5323 5319 5315 5311 5307 5303 5299 5295 5292 5289 5285 5282 5280 5278 5278 5278 5278 5279 5281 5282 5283 5285 5289 5292 5296 5302 5307 5311 5316 5321 5326 5332 5339 5345 5351 5356 5361 5366 5371 5376 5380 5385